All
Nangis-Les Loges Airport LFAI Weather
There is no TAF data available at LFAI or any nearby airports.
There is no METAR data available at LFAI. Showing METAR data for LFPM (15 mi W).
Recent LFPM METAR history (no data for LFAI)
| Date | Time (CEST) | Flight Rules | Wind Dir. | Speed | Type | Height AGL (ft) | Visibility | Temp (°C) | Temp (°F) | Dew Point (°C) | Dew Point (°F) | Rel. Humid. | Pressure | Density Altitude | Remarks |
|---|---|---|---|---|---|---|---|---|---|---|---|---|---|---|---|
| 02-May | 16:30 | VFR | 200° | 11 kt | 10000 meters | 26° | 78° | 10° | 50° | 37% | 1015 mb | 1,569 ft | |||
| 02-May | 16:00 | VFR | 190° | 14 kt | 10000 meters | 25° | 77° | 8° | 46° | 34% | 1015 mb | 1,449 ft | |||
| 02-May | 15:30 | VFR | 170° | 11 kt | 10000 meters | 25° | 77° | 10° | 50° | 39% | 1016 mb | 1,420 ft | |||
| 02-May | 15:00 | VFR | 140° | 11 kt | 10000 meters | 25° | 77° | 13° | 55° | 47% | 1016 mb | 1,420 ft | |||
| 02-May | 14:30 | VFR | 160° | 11 kt | 10000 meters | 25° | 77° | 13° | 55° | 47% | 1016 mb | 1,420 ft | |||
| 02-May | 14:00 | VFR | 170° | 9 kt | 10000 meters | 24° | 75° | 13° | 55° | 50% | 1017 mb | 1,270 ft | |||
| 02-May | 13:30 | VFR | 140° | 10 kt | 10000 meters | 24° | 75° | 14° | 57° | 54% | 1017 mb | 1,270 ft | |||
| 02-May | 13:00 | VFR | 150° | 9 kt | 10000 meters | 23° | 73° | 15° | 59° | 61% | 1017 mb | 1,150 ft | |||
| 02-May | 12:30 | VFR | 130° | 9 kt | 10000 meters | 22° | 71° | 15° | 59° | 65% | 1018 mb | 1,000 ft | |||
| 02-May | 12:00 | VFR | 140° | 5 kt | 10000 meters | 22° | 71° | 16° | 60° | 69% | 1018 mb | 1,000 ft | |||
| 02-May | 11:30 | VFR | 160° | 3 kt | 10000 meters | 21° | 69° | 16° | 60° | 73% | 1018 mb | 880 ft | |||
| 02-May | 11:00 | VFR | 160° | 3 kt | 10000 meters | 19° | 66° | 16° | 60° | 83% | 1019 mb | 611 ft | |||
| 02-May | 10:30 | VFR | 140° | 4 kt | 10000 meters | 17° | 62° | 15° | 59° | 88% | 1019 mb | 371 ft | |||
| 02-May | 10:00 | VFR | 160° | 5 kt | 10000 meters | 17° | 62° | 15° | 59° | 88% | 1019 mb | 371 ft | |||
| 02-May | 09:30 | VFR | 150° | 6 kt | 10000 meters | 17° | 62° | 15° | 59° | 88% | 1019 mb | 371 ft | |||
| 02-May | 09:00 | VFR | 140° | 4 kt | 10000 meters | 16° | 60° | 15° | 59° | 94% | 1019 mb | 251 ft | |||
| 02-May | 08:30 | VFR | 130° | 4 kt | 10000 meters |
15° | 59° | 15° | 59° | 100% | 1019 mb | 131 ft | |||
| 02-May | 08:00 | VFR | 100° | 3 kt | 9000 meters |
14° | 57° | 14° | 57° | 100% | 1019 mb | 11 ft | |||
| 02-May | 07:30 | MVFR | 120° | 3 kt | 8000 meters |
14° | 57° | 14° | 57° | 100% | 1019 mb | 11 ft | |||
| 02-May | 07:00 | MVFR | 140° | 4 kt | 6000 meters | 12° | 53° | 12° | 53° | 100% | 1019 mb | -229 ft | |||
| 02-May | 06:30 | MVFR | 90° | 2 kt | 6000 meters |
12° | 53° | 12° | 53° | 100% | 1019 mb | -229 ft | |||
| 02-May | 06:00 | MVFR | 150° | 2 kt | 7000 meters |
12° | 53° | 12° | 53° | 100% | 1019 mb | -229 ft | |||
| 02-May | 05:30 | MVFR | 130° | 5 kt | 6000 meters | 12° | 53° | 12° | 53° | 100% | 1019 mb | -229 ft | |||
| 02-May | 05:00 | MVFR | 110° | 4 kt | 6000 meters | 12° | 53° | 12° | 53° | 100% | 1020 mb | -259 ft |
Login
| Your browser is unsupported. upgrade your browser |
